Karol Buksa

Olheiro - Lech
10 Set 2028
Domingo
Processo

Personalidade

Adaptabilidade (10) Ambição (3) Controvérsia (4) Lealdade (12) Pressão (19) Profissionalismo (10) Espírito Esportivo (1) Temperamento (3)

Perfil

Estilo de Treinamento Democrático
Licença Nacional A
Determinação 10
Gestão de Pessoas 5
Motivação 5
Disciplina 13
Satisfação no Trabalho
100%
Fadiga
0%
Função Olheiro
Salário 36.9K p/s
Contrato 14.03.2030

Desempenho

Comportamento Bom
Eficácia do Treinamento
50%
Desenvolvimento do Jogador
40%
Prevenção de Lesões
60%
Implementação Tática
30%

Eventos Recentes

Participou de uma reunião de recrutamento 7d atrás
Participou de uma reunião de recrutamento 7d atrás
Participou de uma reunião de recrutamento 14d atrás
Participou de uma reunião de recrutamento 14d atrás
Participou de uma reunião de recrutamento 21d atrás
Participou de uma reunião de recrutamento 21d atrás
Participou de uma reunião de recrutamento 28d atrás
Participou de uma reunião de recrutamento 28d atrás

Monitorando agora

57
Jogador Clube Status Habilidade Confiança Observado Última observação Último voto
Roman Yakuba Zaglebie Ativo 120 / 110 48% 1 07.08.2028 -
Diego Coppola Paris FC Ativo 166 / 152 40% 2 02.06.2028 -
António Silva Bournemouth Ativo 132 / 161 40% 1 02.06.2028 -
Zito Luvumbo Cagliari Ativo 126 / 131 40% 1 31.05.2028 -
Archie Gray Southampton Ativo 143 / 160 40% 3 27.05.2028 -
Max Johnston Derby County Ativo 132 / 149 40% 2 27.05.2028 -
Patrick Dorgu Bristol City Ativo 164 / 149 40% 1 26.05.2028 -
Ayden Heaven Portsmouth Ativo 148 / 155 40% 1 26.05.2028 -
Adam Wharton Crystal Palace Ativo 154 / 170 40% 1 24.05.2028 -
Calvin Ramsay Bristol Rovers Ativo 136 / 116 40% 1 24.05.2028 -
Jacques Ekomié Wrexham Ativo 142 / 123 40% 1 22.05.2028 -
Juanlu Bournemouth Ativo 146 / 162 40% 1 21.05.2028 -
Reuell Walters Luton Town Ativo 109 / 128 40% 1 21.05.2028 -
Brooke Norton-Cuffy Hull City Ativo 143 / 149 40% 2 17.05.2028 -
Lewis Hall Newcastle United Ativo 171 / 166 40% 1 17.05.2028 -
Bosun Lawal Stoke City Ativo 143 / 123 40% 3 14.05.2028 -
Trey Nyoni Rotherham United Ativo 131 / 135 40% 2 14.05.2028 -
Tim Iroegbunam Peterborough United Ativo 155 / 150 40% 2 09.05.2028 -
Josh Acheampong Everton Ativo 132 / 157 40% 1 09.05.2028 -
Sydie Peck Swindon Town Ativo 120 / 145 40% 1 08.05.2028 -
Habib Diarra Sunderland Ativo 128 / 145 40% 3 07.05.2028 -
Harvey Vale Queens Park Rangers Ativo 111 / 133 40% 1 07.05.2028 -
Marco Palestra Everton Ativo 152 / 136 40% 1 05.05.2028 -
Joshua Quarshie Exeter City Ativo 112 / 122 40% 1 15.04.2028 -
Yehor Yarmoliuk Brentford Ativo 161 / 158 40% 1 12.04.2028 -
Agustín Giay Palmeiras Ativo 135 / 149 40% 2 03.04.2028 -
François Gaillard Monaco Ativo 162 / 145 40% 1 29.03.2028 -
Giovanni Leoni Lincoln City Ativo 140 / 155 40% 1 28.03.2028 -
Arsène Kouassi AS Nancy Ativo 145 / 147 40% 1 27.03.2028 -
Honest Ahanor Atalanta Ativo 149 / 125 40% 1 26.03.2028 -
Andrey Santos Bolton Wanderers Ativo 168 / 158 40% 1 23.03.2028 -
Ondřej Lingr Korona Ativo 139 / 138 48% 1 03.01.2028 Observar
Baralhas Vitória Ativo 128 / 114 40% 1 31.12.2027 -
Santiago Ramos Mingo Bahia Ativo 141 / 145 40% 1 31.12.2027 -
Vladislav Blănuţă Lechia Ativo 125 / 124 48% 1 01.01.2027 -
Callum O'Hare Sheffield United Perdido 149 / 126 40% 1 31.12.2026 -
Joe Gelhardt Hull City Ativo 150 / 144 40% 1 29.12.2026 -
Welington Southampton Ativo 149 / 139 40% 1 28.12.2026 -
Oswin Appollis Orlando Pirates Ativo 110 / 132 40% 1 28.12.2026 -
Mohamed-Ali Cho Hull City Ativo 140 / 120 40% 1 27.12.2026 -
Jack McGlynn Stoke City Ativo 118 / 143 40% 1 26.12.2026 -
Mohammad Mehdi Mohebi Persepolis Ativo 139 / 104 40% 2 13.12.2026 -
Oston O'runov Persepolis Ativo 145 / 137 40% 2 13.12.2026 -
Ola Brynhildsen Rapid Wien Ativo 151 / 139 40% 1 11.12.2026 -
Santiago Pierotti Lecce Ativo 137 / 135 40% 1 10.12.2026 -
Manu Morlanes Mallorca Ativo 116 / 137 40% 1 10.12.2026 -
Ronaldo Vásquez Sumgayit Ativo 107 / 100 40% 1 06.12.2026 -
Armstrong Oko-Flex Levski Ativo 113 / 117 40% 3 01.12.2026 -
Peter Federico Gornik Zabrze Ativo 122 / 134 40% 1 01.12.2026 -
Sergey Pinyaev Lokomotiv Moscow Ativo 113 / 134 40% 1 25.11.2026 -
Marco Pašalić Orlando City Ativo 141 / 136 40% 1 24.11.2026 -
Sota Kitano Red Bull Salzburg Ativo 120 / 133 40% 1 22.11.2026 -
Jesus Ferreira Seattle Sounders Ativo 140 / 136 40% 1 20.11.2026 -
Marcelo Allende Mamelodi Sundowns Ativo 113 / 121 40% 1 14.11.2026 -
Esequiel Barco Spartak Moscow Ativo 143 / 143 40% 1 03.11.2026 -
Giovani Lo Celso Betis Ativo 149 / 164 40% 1 01.08.2026 -
Jordan Beyer Burnley Ativo 127 / 113 40% 1 01.08.2026 -